Location: De Har
(53.3413°N, 6.6858°E)
Time: 08:09:58
(UTC+00:00)

DNEPR-1 R/B - Pass Details

Date: 22 April 2026
Orbit: 581 x 1332 km, 64.6° (Epoch: 15 May)

Event Time Altitude Azimuth Distance (km) Brightness Sun altitude
Rises 02:46:09 0° 313° (NW) 3,132 7.1 -12.5°
Reaches altitude 10° 02:48:22 10° 308° (NW) 2,298 6.4 -12.3°
Maximum altitude 02:53:27 49° 234° (SW) 1,101 4.4 -11.7°
Drops below altitude 10° 02:59:35 10° 162° (SSE) 2,772 6.7 -11.0°
Sets 03:02:31 0° 157° (SSE) 3,843 7.5 -10.6°
